Weather History for Montpelier, VT

Change the Weather History Date:

Saturday, January 26, 2013

  Actual Average Record
Temperature  
Mean Temperature 4 °F 17 °F  
Max Temperature 10 °F 27 °F 60 °F (1950)
Min Temperature -2 °F 7 °F -22 °F (1994)
Degree Days  
Heating Degree Days 61 48  
Month to date heating degree days 1166 1260  
Since 1 July heating degree days 4129 4408  
Moisture  
Dew Point 0 °F    
Average Humidity 71    
Maximum Humidity 91    
Minimum Humidity 50    
Precipitation  
Precipitation T in 0.09 in 1.19 in (1986)
Month to date precipitation 0.21 2.02  
Year to date precipitation 0.21 2.02  
Sea Level Pressure  
Sea Level Pressure 30.18 in    
Wind  
Wind Speed 6 mph (NW)    
Max Wind Speed 20 mph    
Max Gust Speed 23 mph    
Visibility 6 miles    
Events Snow    
T = Trace of Precipitation, MM = Missing Value Source: NWS Daily Summary

Daily Weather History Graph

Daily Weather History Graph

Search for Another Location

Airport:

Trip Planner

Search our weather history database for the weather conditions in past years. The results will help you decide how hot, cold, wet, or windy it might be!

Date:

Astronomy

Jan. 26, 2013 Rise Set
Actual Time 7:14 AM EST 4:52 PM EST
Civil Twilight 6:42 AM EST 5:23 PM EST
Nautical Twilight 6:07 AM EST 5:58 PM EST
Astronomical Twilight 5:33 AM EST 6:32 PM EST
Moon 4:46 PM EST (1/26) 6:29 AM EST (1/26)
Length of Visible Light 10h 40m
Length of Day
9h 38m
Full, 100% of the Moon is Illuminated
Jan 26
Full
Jan 26
Full
Feb 3
Last Quarter
Feb 10
New
Feb 17
First Quarter

Hourly Weather History & Observations

Time (EST) Temp. Windchill Dew Point Humidity Pressure Visibility Wind Dir Wind Speed Gust Speed Precip Events Conditions
12:49 AM 5.0 °F - 1.4 °F 85% 30.04 in 2.5 mi Calm Calm - 0.00 in Snow Light Snow
12:51 AM 5.0 °F - 1.4 °F 85% 30.04 in 2.5 mi Calm Calm - N/A Snow Light Snow
12:59 AM 5.0 °F - 1.4 °F 85% 30.03 in 4.0 mi Calm Calm - 0.00 in Snow Light Snow
1:51 AM 5.0 °F - 1.0 °F 84% 30.12 in 7.0 mi Calm Calm - 0.00 in   Scattered Clouds
2:51 AM 3.9 °F - -0.0 °F 84% 30.12 in 8.0 mi Calm Calm - N/A   Overcast
3:51 AM 1.0 °F - -2.0 °F 87% 30.12 in 10.0 mi Calm Calm - N/A   Clear
4:15 AM -0.4 °F - -2.2 °F 92% 30.03 in 10.0 mi Calm Calm - N/A   Mostly Cloudy
4:42 AM -0.4 °F - -2.2 °F 92% 30.03 in 7.0 mi Calm Calm - N/A   Overcast
4:51 AM -0.0 °F - -2.9 °F 88% 30.12 in 6.0 mi Calm Calm - N/A   Overcast
5:38 AM 1.4 °F -8.3 °F -0.4 °F 92% 30.04 in 9.0 mi Variable 4.6 mph - N/A   Mostly Cloudy
5:46 AM 1.4 °F - -0.4 °F 92% 30.04 in 10.0 mi Calm Calm - N/A   Scattered Clouds
5:51 AM 1.0 °F -6.7 °F -2.0 °F 87% 30.14 in 10.0 mi North 3.5 mph - N/A   Scattered Clouds
6:51 AM -0.0 °F -11.6 °F -2.9 °F 88% 30.15 in 10.0 mi NNW 5.8 mph - N/A   Clear
7:51 AM -0.9 °F - -2.9 °F 91% 30.17 in 10.0 mi Calm Calm - N/A   Clear
8:51 AM 1.0 °F -8.7 °F -4.0 °F 79% 30.18 in 10.0 mi NW 4.6 mph - N/A   Clear
9:51 AM 3.0 °F -10.5 °F -5.1 °F 69% 30.19 in 10.0 mi NNW 8.1 mph - N/A   Clear
10:51 AM 6.1 °F -5.6 °F -5.1 °F 60% 30.19 in 10.0 mi NW 6.9 mph - N/A   Clear
11:51 AM 7.0 °F -1.7 °F -4.0 °F 61% 30.17 in 10.0 mi Variable 4.6 mph - 0.00 in   Clear
12:51 PM 10.0 °F -5.2 °F -5.1 °F 51% 30.16 in 10.0 mi NW 12.7 mph - 0.00 in   Clear
1:51 PM 10.0 °F -2.9 °F -6.0 °F 48% 30.17 in 10.0 mi NW 9.2 mph 20.7 mph 0.00 in   Clear
2:51 PM 9.0 °F -6.6 °F -8.0 °F 46% 30.20 in 10.0 mi WNW 12.7 mph 23.0 mph N/A   Clear
3:51 PM 8.1 °F -4.3 °F -8.0 °F 48% 30.23 in 10.0 mi NW 8.1 mph 17.3 mph N/A   Overcast
4:51 PM 7.0 °F -7.5 °F -4.0 °F 61% 30.24 in 10.0 mi WNW 10.4 mph - N/A   Partly Cloudy
5:51 PM 7.0 °F -4.5 °F -2.9 °F 64% 30.26 in 10.0 mi NNW 6.9 mph - N/A   Mostly Cloudy
6:20 PM 6.8 °F -2.0 °F -0.4 °F 72% 30.17 in 10.0 mi NW 4.6 mph - N/A   Mostly Cloudy
6:51 PM 7.0 °F - -0.9 °F 70% 30.27 in 10.0 mi Calm Calm - N/A   Overcast
7:35 PM 6.8 °F -3.5 °F -0.4 °F 72% 30.18 in 7.0 mi Variable 5.8 mph - N/A   Overcast
7:51 PM 8.1 °F -4.3 °F 1.9 °F 76% 30.27 in 4.0 mi North 8.1 mph - 0.00 in Snow Light Snow
8:51 PM 8.1 °F -8.4 °F 3.0 °F 80% 30.29 in 2.5 mi NW 13.8 mph 20.7 mph 0.00 in Snow Light Snow
9:04 PM 8.6 °F -4.7 °F 3.2 °F 79% 30.19 in 3.0 mi WNW 9.2 mph 18.4 mph 0.00 in Snow Light Snow
9:35 PM 8.6 °F -5.5 °F 3.2 °F 79% 30.20 in 2.5 mi NW 10.4 mph 19.6 mph 0.00 in Snow Light Snow
9:40 PM 8.6 °F -7.0 °F 3.2 °F 79% 30.20 in 3.0 mi NW 12.7 mph 19.6 mph 0.00 in Snow Light Snow
9:49 PM 8.6 °F -6.3 °F 3.2 °F 79% 30.20 in 3.0 mi NW 11.5 mph - 0.00 in Snow Light Snow
9:51 PM 8.1 °F -7.0 °F 3.0 °F 80% 30.29 in 3.0 mi NW 11.5 mph - 0.00 in Snow Light Snow
10:03 PM 8.6 °F -6.3 °F 3.2 °F 79% 30.20 in 2.0 mi NW 11.5 mph - 0.00 in Snow Light Snow
10:41 PM 8.6 °F -4.7 °F 3.2 °F 79% 30.21 in 1.5 mi NW 9.2 mph - 0.00 in Snow Light Snow
10:51 PM 8.1 °F -4.3 °F 5.0 °F 87% 30.30 in 1.5 mi NW 8.1 mph - 0.00 in Snow Light Snow
10:56 PM 8.6 °F -3.7 °F 5.0 °F 85% 30.21 in 1.2 mi NW 8.1 mph - 0.00 in Snow Light Snow
11:05 PM 8.6 °F -5.5 °F 5.0 °F 85% 30.22 in 1.0 mi NW 10.4 mph - 0.00 in Snow Light Snow
11:21 PM 8.6 °F -2.6 °F 5.0 °F 85% 30.22 in 1.2 mi NW 6.9 mph 16.1 mph 0.00 in Snow Light Snow
11:38 PM 8.6 °F -3.7 °F 5.0 °F 85% 30.22 in 1.5 mi WNW 8.1 mph - 0.00 in Snow Light Snow
11:48 PM 8.6 °F -2.6 °F 5.0 °F 85% 30.23 in 1.0 mi NW 6.9 mph - 0.00 in Snow Light Snow
11:49 PM 8.1 °F -3.2 °F 5.0 °F 87% 30.32 in 1.0 mi NW 6.9 mph - 0.00 in Snow Light Snow